Zurück zum Katalog

COSMOS 2533

AktivNavigationGEO
NORAD 43867·PAYLOAD·🇷🇺 Russia

Gestartet Dec 21, 2018 von Baikonur Cosmodrome

Loading…

TLE

AktuellSource: Space-Track

Epoche: Sep 14, 2026, 14:08 UTC

1 43867U 18107A   26257.58896774 -.00000047  00000-0  00000-0 0  9993
2 43867   0.0161 129.0879 0000298 164.7650 341.7283  1.00274392 28345

Verfolge COSMOS 2533 in Echtzeit mit AllMySat

Download on the App Store